Grosse Ile, MI

8:35 PM EDT on April 28, 2017 (GMT -0400)
Grosse Ile Municipal

Weather History for KONZ - October, 2013

Change the Weather History Date:

Tuesday, October 8, 2013

  Actual Average (KDTW) Record (KDTW)
Temperature  
Mean Temperature 55 °F -  
Max Temperature 64 °F 65 °F 90 °F (2007)
Min Temperature 46 °F 44 °F 25 °F (1889)
Degree Days  
Heating Degree Days 10    
Growing Degree Days 5 (Base 50)    
Moisture  
Dew Point 45 °F    
Average Humidity 70    
Maximum Humidity 93    
Minimum Humidity 45    
Precipitation  
Precipitation 0.00 in - - ()
Sea Level Pressure  
Sea Level Pressure 30.24 in    
Wind  
Wind Speed 4 mph (South)    
Max Wind Speed 9 mph    
Max Gust Speed -    
Visibility 10 miles    
Events      
Averages and records for this station are not official NWS values.
T = Trace of Precipitation, MM = Missing Value Source: NWS Daily Summary

Daily Weather History Graph

Daily Weather History Graph

Search for Another Location

Airport or City:

Trip Planner

Search our weather history database for the weather conditions in past years. The results will help you decide how hot, cold, wet, or windy it might be!

Date:

Astronomy

Oct. 08, 2013 Rise Set
Actual Time 7:37 AM EDT 7:01 PM EDT
Civil Twilight 7:09 AM EDT 7:29 PM EDT
Nautical Twilight 6:37 AM EDT 8:02 PM EDT
Astronomical Twilight 6:04 AM EDT 8:34 PM EDT
Moon 11:34 AM EDT (10/8) 9:33 PM EDT (10/8)
Length of Visible Light 12h 20m
Length of Day
11h 24m
Waxing Crescent, 16% of the Moon is Illuminated
Oct 8
Waxing Crescent
Oct 11
First Quarter
Oct 18
Full
Oct 26
Last Quarter
Nov 3
New

Hourly Weather History & Observations

Time (EDT) Temp. Windchill Dew Point Humidity Pressure Visibility Wind Dir Wind Speed Gust Speed Precip Events Conditions
12:14 AM 51.8 °F - 44.6 °F 76% 30.12 in 10.0 mi West 5.8 mph - N/A   Clear
12:34 AM 50.0 °F - 44.6 °F 82% 30.13 in 10.0 mi Calm Calm - N/A   Clear
12:54 AM 50.0 °F - 44.6 °F 82% 30.13 in 10.0 mi West 3.5 mph - N/A   Clear
1:14 AM 50.0 °F - 44.6 °F 82% 30.13 in 10.0 mi Calm Calm - N/A   Clear
1:34 AM 50.0 °F - 44.6 °F 82% 30.13 in 10.0 mi Calm Calm - N/A   Clear
1:54 AM 48.2 °F - 44.6 °F 87% 30.14 in 10.0 mi Calm Calm - N/A   Clear
2:14 AM 48.2 °F - 44.6 °F 87% 30.14 in 10.0 mi West 4.6 mph - N/A   Clear
2:34 AM 48.2 °F - 44.6 °F 87% 30.15 in 10.0 mi West 5.8 mph - N/A   Clear
2:54 AM 48.2 °F - 44.6 °F 87% 30.15 in 10.0 mi WSW 3.5 mph - N/A   Clear
3:14 AM 48.2 °F - 44.6 °F 87% 30.15 in 10.0 mi West 4.6 mph - N/A   Clear
3:34 AM 48.2 °F - 44.6 °F 87% 30.16 in 10.0 mi West 5.8 mph - N/A   Clear
3:55 AM 46.4 °F 44.3 °F 44.6 °F 93% 30.16 in 10.0 mi West 4.6 mph - N/A   Clear
4:14 AM 48.2 °F - 44.6 °F 87% 30.17 in 10.0 mi West 5.8 mph - N/A   Clear
4:34 AM 48.2 °F - 44.6 °F 87% 30.18 in 10.0 mi West 5.8 mph - N/A   Clear
4:54 AM 48.2 °F - 44.6 °F 87% 30.18 in 10.0 mi West 5.8 mph - N/A   Clear
5:14 AM 48.2 °F - 44.6 °F 87% 30.19 in 10.0 mi Calm Calm - N/A   Clear
5:34 AM 48.2 °F - 44.6 °F 87% 30.18 in 10.0 mi Calm Calm - N/A   Clear
5:54 AM 48.2 °F - 44.6 °F 87% 30.19 in 10.0 mi Calm Calm - N/A   Clear
6:15 AM 48.2 °F - 44.6 °F 87% 30.20 in 10.0 mi Calm Calm - N/A   Clear
6:34 AM 48.2 °F - 42.8 °F 82% 30.21 in 10.0 mi Calm Calm - N/A   Clear
6:54 AM 46.4 °F - 42.8 °F 87% 30.22 in 10.0 mi Calm Calm - N/A   Clear
7:14 AM 46.4 °F 44.3 °F 42.8 °F 87% 30.22 in 10.0 mi WSW 4.6 mph - N/A   Clear
7:34 AM 46.4 °F 45.2 °F 42.8 °F 87% 30.23 in 10.0 mi West 3.5 mph - N/A   Clear
7:54 AM 46.4 °F 45.2 °F 42.8 °F 87% 30.24 in 10.0 mi West 3.5 mph - N/A   Clear
8:14 AM 46.4 °F 44.3 °F 42.8 °F 87% 30.25 in 10.0 mi West 4.6 mph - N/A   Clear
8:34 AM 48.2 °F - 44.6 °F 87% 30.26 in 10.0 mi West 4.6 mph - N/A   Clear
8:54 AM 51.8 °F - 44.6 °F 76% 30.27 in 10.0 mi West 4.6 mph - N/A   Clear
9:14 AM 51.8 °F - 46.4 °F 82% 30.27 in 10.0 mi West 3.5 mph - N/A   Clear
9:34 AM 53.6 °F - 46.4 °F 77% 30.28 in 10.0 mi West 3.5 mph - N/A   Clear
9:54 AM 55.4 °F - 46.4 °F 72% 30.28 in 10.0 mi West 3.5 mph - N/A   Clear
10:14 AM 57.2 °F - 46.4 °F 67% 30.29 in 10.0 mi Calm Calm - N/A   Clear
10:34 AM 59.0 °F - 48.2 °F 67% 30.29 in 10.0 mi Calm Calm - N/A   Clear
10:54 AM 59.0 °F - 46.4 °F 63% 30.29 in 10.0 mi Calm Calm - N/A   Clear
11:14 AM 60.8 °F - 48.2 °F 63% 30.29 in 10.0 mi South 3.5 mph - N/A   Clear
11:34 AM 60.8 °F - 48.2 °F 63% 30.29 in 10.0 mi South 6.9 mph - N/A   Clear
11:54 AM 60.8 °F - 46.4 °F 59% 30.29 in 10.0 mi South 5.8 mph - N/A   Clear
12:14 PM 60.8 °F - 48.2 °F 63% 30.29 in 10.0 mi South 6.9 mph - N/A   Clear
12:34 PM 62.6 °F - 48.2 °F 59% 30.29 in 10.0 mi South 6.9 mph - N/A   Clear
12:55 PM 62.6 °F - 46.4 °F 55% 30.29 in 10.0 mi South 6.9 mph - N/A   Clear
1:14 PM 62.6 °F - 46.4 °F 55% 30.28 in 10.0 mi South 8.1 mph - N/A   Clear
1:34 PM 62.6 °F - 46.4 °F 55% 30.28 in 10.0 mi South 9.2 mph - N/A   Clear
1:54 PM 62.6 °F - 46.4 °F 55% 30.27 in 10.0 mi South 8.1 mph - N/A   Clear
2:14 PM 62.6 °F - 46.4 °F 55% 30.27 in 10.0 mi South 8.1 mph - N/A   Clear
2:34 PM 62.6 °F - 46.4 °F 55% 30.26 in 10.0 mi South 6.9 mph - N/A   Clear
2:54 PM 64.4 °F - 44.6 °F 49% 30.26 in 10.0 mi South 6.9 mph - N/A   Clear
3:14 PM 62.6 °F - 42.8 °F 48% 30.26 in 10.0 mi SSE 6.9 mph - N/A   Clear
3:34 PM 64.4 °F - 42.8 °F 45% 30.26 in 10.0 mi SSE 5.8 mph - N/A   Clear
3:54 PM 64.4 °F - 42.8 °F 45% 30.26 in 10.0 mi SSE 5.8 mph - N/A   Clear
4:14 PM 64.4 °F - 44.6 °F 49% 30.25 in 10.0 mi SSE 6.9 mph - N/A   Clear
4:34 PM 62.6 °F - 44.6 °F 52% 30.25 in 10.0 mi SE 8.1 mph - N/A   Clear
4:54 PM 62.6 °F - 42.8 °F 48% 30.25 in 10.0 mi SE 5.8 mph - N/A   Clear
5:14 PM 62.6 °F - 42.8 °F 48% 30.25 in 10.0 mi SE 4.6 mph - N/A   Clear
5:34 PM 62.6 °F - 44.6 °F 52% 30.25 in 10.0 mi SE 3.5 mph - N/A   Clear
5:54 PM 62.6 °F - 44.6 °F 52% 30.25 in 10.0 mi ESE 3.5 mph - N/A   Clear
6:14 PM 62.6 °F - 42.8 °F 48% 30.25 in 10.0 mi SE 3.5 mph - N/A   Clear
6:34 PM 62.6 °F - 42.8 °F 48% 30.25 in 10.0 mi Calm Calm - N/A   Clear
6:54 PM 60.8 °F - 44.6 °F 55% 30.25 in 10.0 mi ESE 3.5 mph - N/A   Clear
7:14 PM 59.0 °F - 46.4 °F 63% 30.25 in 10.0 mi Calm Calm - N/A   Clear
7:35 PM 59.0 °F - 46.4 °F 63% 30.25 in 10.0 mi East 3.5 mph - N/A   Clear
7:54 PM 57.2 °F - 46.4 °F 67% 30.26 in 10.0 mi East 3.5 mph - N/A   Clear
8:14 PM 57.2 °F - 46.4 °F 67% 30.26 in 10.0 mi East 3.5 mph - N/A   Clear
8:34 PM 57.2 °F - 46.4 °F 67% 30.27 in 10.0 mi Calm Calm - N/A   Clear
8:54 PM 57.2 °F - 46.4 °F 67% 30.27 in 10.0 mi East 4.6 mph - N/A   Clear
9:15 PM 57.2 °F - 44.6 °F 63% 30.27 in 10.0 mi East 4.6 mph - N/A   Clear
9:34 PM 55.4 °F - 46.4 °F 72% 30.27 in 10.0 mi East 3.5 mph - N/A   Clear
9:54 PM 55.4 °F - 46.4 °F 72% 30.27 in 10.0 mi East 4.6 mph - N/A   Clear
10:14 PM 55.4 °F - 46.4 °F 72% 30.27 in 10.0 mi East 4.6 mph - N/A   Clear
10:34 PM 55.4 °F - 46.4 °F 72% 30.27 in 10.0 mi East 3.5 mph - N/A   Clear
10:54 PM 55.4 °F - 46.4 °F 72% 30.27 in 10.0 mi Calm Calm - N/A   Clear
11:14 PM 53.6 °F - 46.4 °F 77% 30.28 in 10.0 mi Calm Calm - N/A   Clear
11:34 PM 53.6 °F - 46.4 °F 77% 30.27 in 10.0 mi Calm Calm - N/A   Clear
11:54 PM 53.6 °F - 46.4 °F 77% 30.27 in 10.0 mi Calm Calm - N/A   Clear